AirNav   Everest Fuels
 
 1315 users online  

NJ69 Ideal Air Strip
Hammonton, New Jersey, USA

GOING TO HAMMONTON?


FAA INFORMATION EFFECTIVE 28 FEBRUARY 2019

Location

FAA Identifier: NJ69
Lat/Long: 39-39-30.4200N / 074-48-08.5850W
39-39.507000N / 074-48.143083W
39.6584500 / -74.8023847
(estimated)
Elevation: 80 ft. / 24 m (estimated)
Variation: 12W (1985)
From city: 2 miles N of HAMMONTON, NJ
Time zone: UTC -5 (UTC -4 during Daylight Saving Time)
Zip code: 08037

Airport Operations

Airport use: Private use. Permission required prior to landing
Activation date: 11/1971
Control tower: no
ARTCC: WASHINGTON CENTER
FSS: MILLVILLE FLIGHT SERVICE STATION
Attendance: UNATNDD
Wind indicator: no
Segmented circle: no

Airport Communications

WX AWOS-AV at N81 (2.1 nm E): 122.7
WX ASOS at ACY (16 nm SE): PHONE 609-272-9311
WX ASOS at VAY (17 nm N): 119.325 (609-267-1176)

Nearby radio navigation aids

VOR radial/distance  VOR name  Freq  Var
VCNr056/10.5CEDAR LAKE VOR/DME115.2010W
ACYr329/16.0ATLANTIC CITY VORTAC108.6010W
CYNr251/19.6COYLE VORTAC113.4010W
GXUr216/23.1MC GUIRE VORTAC110.6012W
OODr097/23.2WOODSTOWN VORTAC112.8010W
SIEr009/33.8SEA ISLE VORTAC114.8009W
RBVr213/35.6ROBBINSVILLE VORTAC113.8010W
ARDr182/36.0YARDLEY VOR/DME108.2010W
DQOr102/37.2DUPONT VORTAC114.0010W

 
NDB name  Hdg/Dist  Freq  Var  ID
RAINBOW058/21.136311WRNB .-. -. -...
LAKEHURST234/31.639611WNEL -. . .-..
AMBLER154/35.827512WING .. -. --.

Airport Services

Airframe service: NONE
Powerplant service: NONE

Runway Information

Runway NE/SW

Dimensions: 1700 x 150 ft. / 518 x 46 m
Surface: turf
RUNWAY NE  RUNWAY SW
Traffic pattern: leftleft
Obstructions: bldgs wiresnone

Airport Ownership and Management from official FAA records

Ownership: Privately-owned
Owner: 1303 ASSOCIATES, LLC
2760 GLASSBORO-CROSS KEYS RD
GLASSBORO, NJ 08028
Phone 856-863-6904
Manager: CHRIS FAZZIO
2760 GLASSBORO-CROSS KEYS RD
GLASSBORO, NJ 08028
Phone 609-561-2712
609-820-7534

Additional Remarks

PRIVATE FACILITY LICENSED BY STATE FOR 1 PLANE 1 PILOT

Instrument Procedures

There are no published instrument procedures at NJ69.

Some nearby airports with instrument procedures:

N81 - Hammonton Municipal Airport (2 nm E)
19N - Camden County Airport (10 nm NW)
17N - Cross Keys Airport (11 nm W)
29N - Kroelinger Airport (14 nm SW)
KACY - Atlantic City International Airport (16 nm SE)
N14 - Flying W Airport (17 nm N)
KVAY - South Jersey Regional Airport (17 nm N)
 
Loc | Ops | Rwys | IFR | FBO | Links
Com | Nav | Svcs | Stats | Notes
Area around NJ69 (Ideal Air Strip)
 
Road maps at: MapQuest Bing Google
 
Aerial photo
No photo
 
Sectional chart

 
Airport distance calculator
Flying to Ideal Air Strip? Find the distance to fly.

From to NJ69

Sunrise and sunset
Times for 18-Mar-2019
 Local
(UTC-4)
 Zulu
(UTC)
Morning civil twilight06:4010:40
Sunrise07:0711:07
Sunset19:0823:08
Evening civil twilight19:3523:35

Current date and time
Zulu (UTC)  18-Mar-2019 14:52:28
Local (UTC-4)  18-Mar-2019 10:52:28
 
METAR
KACY 
15nm SE 
181354Z 03005KT 10SM OVC080 03/M04 A3031 RMK AO2 SLP264 T00331044
KVAY 
17nm N 
ASOS 119.325 609-267-1176
181354Z AUTO VRB04KT 10SM BKN080 03/M09 A3032 RMK AO2 SLP269 T00281089
KMIV 
22nm SW 
181354Z AUTO 09008KT 10SM BKN080 OVC090 03/M06 A3031 RMK AO2 SLP263 T00331061
KPHL 
23nm NW 
181354Z 08009KT 10SM SCT070 BKN140 04/M10 A3032 RMK AO2 SLP268 T00441100
KWRI 
24nm NE 
181356Z AUTO 05006KT 10SM OVC070 03/M10 A3029 RMK AO2 SLP258 T00281105 $
KPNE 
27nm N 
181354Z 04005KT 10SM OVC085 04/M10 A3033 RMK AO2 SLP272 T00441100
KMJX 
29nm NE 
AWOS-3 119.875 732-244-4450
181356Z AUTO VRB03KT 10SM BKN065 BKN085 03/M10 A3032 RMK AO2 SLP275 T00331100
KNEL 
30nm NE 
181400Z VRB04KT 10SM OVC095 06/M09 A3031 RMK AO2 SLPNO T00561094 $
TAF
KACY 
15nm SE 
181120Z 1812/1912 06005KT P6SM VCSH SCT050 BKN070 FM181800 12006KT P6SM SCT050 BKN070 FM182300 VRB03KT P6SM SCT060 FM190800 VRB03KT P6SM SKC
NOTAMs
Click for the latest NOTAMs
NOTAMs are issued by the DoD/FAA and will open in a separate window not controlled by AirNav.

 

 
 

Would you like to see your business listed on this page?

 If your business provides an interesting product or service to pilots, flight crews, aircraft, or users of the Ideal Air Strip, you should consider listing it here.  To start the listing process, click on the button below
 
Add a business
 

Other Pages about Ideal Air Strip

Update a link
 
Copyright © AirNav, LLC. All rights reserved. Privacy Policy  Contact